STARLINK-4474 (53547 NORAD) Tracking and Keplerian Element Data

This shows tracking and keplerian element data for the satellite.

Feedback or suggestion? Click here.




ElementValue
Catalog53547
NameSTARLINK-4474
Epoch Orbit1506
Epoch Day324.71899028
Epoch Year2022
RAAN73.4413
Inclination53.2166
Eccentricity0.0001566
Argument of Perigee58.4942
Mean Anonmoly301.6203
Mean Motion15.08836197
Decay Rate8.43E-06
L11 53547U 22101W 22324.71899028 .00000843 00000+0 71065-4 0 9994
L22 53547 53.2166 73.4413 0001566 58.4942 301.6203 15.08836197 15066



Live tracking and technical data element details for STARLINK-4474 (NORAD 53547). STARLINK-4474 can be tracked NOW for your location showing map with azimuth and elevation plus other details from your city location.







IsCatalogInMostPopularTable: catalog: 53547, numindb: 3
Update: records affected: 1



GetName: 53547 STARLINK-4474

Hit Count: updated at: Thu, 08 Dec 2022 10:08:25 GMT